Home > Weather > Flensburg > Past weeks

Flag for Germany Weather for the Past 2 Weeks in Flensburg, Schleswig-Holstein, Germany

Now
45 °F

Quite cool.


Feels Like: 45 °F
Forecast: 34 / 62 °F
Wind: 2 mph from Southeast

Location: Soenderborg Lufthavn

Current Time: May 1, 2016 at 11:19:54 PM

Latest Report: May 1, 2016 at 10:50 PM


Visibility: N/A

Pressure: 30.33 "Hg

Humidity: 81%

Dew Point: 39 °F

Location of FlensburgLocation

Historic Weather in Flensburg — Graph

°F

Flensburg Temperature Yesterday

Maximum temperature yesterday: 52 °F (at 2:52 PM)
Minimum temperature yesterday: 43 °F (at 12:20 AM)
Average temperature yesterday: 46 °F

High & Low Weather Summary for the Past Weeks

 TemperatureHumidityPressure
High55 °F (May 1, 4:50 PM)100% (Apr 24, 4:20 AM)30.36 "Hg (Apr 24, 4:20 AM)
Low34 °F (Apr 24, 4:20 AM)37% (Apr 23, 2:20 PM)29.33 "Hg (Apr 26, 5:50 AM)
Average43 °F79%29.89 "Hg
* Reported Apr 16 10:20 PM — May 1 10:20 PM, Flensburg, Weather by CustomWeather, © 2016

Note: Actual official high and low records may vary slightly from our data, if they occured in-between our weather recording intervals... More about our weather records

Advertising

Flensburg Weather History for the Previous 24 Hours

Scroll right to see more
 ConditionsComfort  
Time TempWeatherWind HumidityBarometerVisibility
10:20 PM
Sun, May 1
46 °FCool.1 mph76%30.36 "HgN/A
9:50 PM45 °FQuite cool.3 mph81%30.36 "HgN/A
9:20 PM48 °FCool.3 mph76%30.33 "HgN/A
8:50 PM50 °FCool.3 mph62%30.33 "HgN/A
8:20 PM55 °FRefreshingly cool.No wind44%30.33 "HgN/A
7:50 PM55 °FRefreshingly cool.No wind55%30.33 "HgN/A
7:20 PM55 °FRefreshingly cool.1 mph47%30.33 "HgN/A
6:50 PM55 °FRefreshingly cool.2 mph51%30.33 "HgN/A
6:20 PM55 °FRefreshingly cool.1 mph51%30.33 "HgN/A
5:50 PM55 °FRefreshingly cool.1 mph47%30.33 "HgN/A
5:20 PM55 °FRefreshingly cool.3 mph55%30.33 "HgN/A
4:50 PM55 °FRefreshingly cool.3 mph51%30.33 "HgN/A
4:20 PM54 °FCool.3 mph54%30.33 "HgN/A
3:50 PM54 °FCool.6 mph54%30.33 "HgN/A
3:20 PM54 °FCool.6 mph54%30.33 "HgN/A
2:50 PM54 °FCool.3 mph58%30.33 "HgN/A
2:20 PM52 °FCool.5 mph58%30.33 "HgN/A
1:50 PM52 °FCool.7 mph58%30.33 "HgN/A
1:20 PM52 °FCool.6 mph67%30.33 "HgN/A
12:50 PM50 °FCool.6 mph67%30.33 "HgN/A
11:50 AM50 °FPassing clouds.5 mph58%30.33 "HgN/A
11:00 AM50 °FPassing clouds.6 mph67%30.33 "HgN/A
10:20 AM48 °FPassing clouds.7 mph71%30.33 "HgN/A
9:50 AM46 °FPassing clouds.9 mph76%30.33 "HgN/A
8:50 AM45 °FQuite cool.7 mph87%30.33 "HgN/A
8:20 AM43 °FQuite cool.6 mph93%30.30 "HgN/A
7:50 AM41 °FQuite cool.5 mph100%30.30 "HgN/A
7:20 AM41 °FQuite cool.5 mph93%30.30 "HgN/A
6:20 AM39 °FChilly.7 mph93%30.27 "HgN/A
5:50 AM39 °FChilly.6 mph93%30.27 "HgN/A
5:20 AM39 °FPassing clouds.3 mph93%30.27 "HgN/A
4:20 AM39 °FChilly.5 mph93%30.27 "HgN/A
3:50 AM39 °FChilly.5 mph93%30.27 "HgN/A
3:20 AM41 °FQuite cool.6 mph93%30.24 "HgN/A
2:50 AM41 °FQuite cool.6 mph93%30.24 "HgN/A
2:20 AM41 °FQuite cool.5 mph93%30.24 "HgN/A
1:50 AM41 °FQuite cool.6 mph87%30.24 "HgN/A
1:20 AM41 °FQuite cool.6 mph87%30.24 "HgN/A
12:50 AM41 °FQuite cool.6 mph93%30.24 "HgN/A
12:20 AM41 °FQuite cool.6 mph87%30.21 "HgN/A
11:50 PM
Sat, Apr 30
43 °FQuite cool.5 mph81%30.21 "HgN/A
11:20 PM43 °FQuite cool.5 mph81%30.21 "HgN/A
Weather by CustomWeather, © 2016

See weather overviewHow to use our weather pages